Campo, CA

4:39 PM PDT on July 25, 2016 (GMT -0700)
Campo

Weather History for KCZZ - December, 2011

Change the Weather History Date:

Saturday, December 24, 2011

  Actual Average Record
Temperature  
Mean Temperature 48 °F 47 °F  
Max Temperature 58 °F 62 °F 78 °F (1960)
Min Temperature 38 °F 33 °F 19 °F (1976)
Degree Days  
Heating Degree Days 17 18  
Month to date heating degree days 543 418  
Since 1 July heating degree days 1175 988  
Cooling Degree Days 0 0  
Month to date cooling degree days 0 0  
Year to date cooling degree days 733 841  
Moisture  
Dew Point -1 °F    
Average Humidity 17    
Maximum Humidity 25    
Minimum Humidity 8    
Precipitation  
Precipitation 0.00 in 0.08 in 1.16 in (1959)
Month to date precipitation 1.49 1.66  
Year to date precipitation 12.99 15.12  
Since 1 July precipitation 5.24  
Snow  
Snow 0.00 in - - ()
Month to date snowfall 0.0  
Year to date snowfall 0.0  
Snow Depth 0.00 in    
Sea Level Pressure  
Sea Level Pressure 30.27 in    
Wind  
Wind Speed 14 mph (NE)    
Max Wind Speed 32 mph    
Max Gust Speed 40 mph    
T = Trace of Precipitation, MM = Missing Value Source: NWS Daily Summary

Daily Weather History Graph

Daily Weather History Graph

Search for Another Location

Airport or City:

Trip Planner

Search our weather history database for the weather conditions in past years. The results will help you decide how hot, cold, wet, or windy it might be!

Date:

Astronomy

Dec. 24, 2011 Rise Set
Actual Time 6:45 AM PST 4:45 PM PST
Civil Twilight 6:17 AM PST 5:12 PM PST
Nautical Twilight 5:47 AM PST 5:43 PM PST
Astronomical Twilight 5:17 AM PST 6:13 PM PST
Moon 6:37 AM PST (12/24) 5:03 PM PST (12/24)
Length of Visible Light 10h 54m
Length of Day
10h 00m
New Moon, 0% of the Moon is Illuminated
Dec 24
New Moon
Dec 31
First Quarter
Jan 8
Full
Jan 16
Last Quarter
Jan 22
New

Hourly Weather History & Observations

Time (PST) Temp. Windchill Dew Point Humidity Pressure Visibility Wind Dir Wind Speed Gust Speed Precip Events Conditions
12:52 AM 37.9 °F 30.0 °F 5.0 °F 25% 30.29 in - ENE 12.7 mph - N/A   Unknown
1:52 AM 46.0 °F 44.8 °F -0.9 °F 14% 30.28 in - Variable 3.5 mph - N/A   Unknown
2:52 AM 50.0 °F - -4.0 °F 11% 30.26 in - NNE 10.4 mph - N/A   Unknown
3:52 AM 48.9 °F - -4.0 °F 11% 30.27 in - North 9.2 mph - N/A   Unknown
4:52 AM 45.0 °F 42.6 °F -2.0 °F 14% 30.29 in - ENE 4.6 mph - N/A   Unknown
5:52 AM 41.0 °F - 1.0 °F 19% 30.31 in - Calm Calm - N/A   Unknown
6:52 AM 46.0 °F 42.5 °F -2.0 °F 14% 30.31 in - NNE 6.9 mph - N/A   Unknown
7:52 AM 48.9 °F - -0.0 °F 13% 30.32 in - Calm Calm - N/A   Unknown
8:52 AM 54.0 °F - -0.9 °F 11% 30.31 in - ENE 12.7 mph 20.7 mph N/A   Unknown
9:52 AM 55.9 °F - -2.9 °F 9% 30.30 in - NE 27.6 mph 38.0 mph N/A   Unknown
10:52 AM 57.0 °F - -2.9 °F 9% 30.29 in - NE 24.2 mph 38.0 mph N/A   Unknown
11:52 AM 57.9 °F - -2.9 °F 8% 30.25 in - NE 24.2 mph 39.1 mph N/A   Unknown
12:52 PM 57.0 °F - -4.0 °F 8% 30.22 in - NE 27.6 mph 40.3 mph N/A   Unknown
1:52 PM 57.0 °F - -5.1 °F 8% 30.20 in - NE 26.5 mph 39.1 mph N/A   Unknown
2:52 PM 55.9 °F - -4.0 °F 9% 30.22 in - NE 25.3 mph 33.4 mph N/A   Unknown
3:52 PM 55.0 °F - -2.0 °F 10% 30.24 in - NE 13.8 mph 24.2 mph N/A   Unknown
4:52 PM 51.1 °F - -0.9 °F 12% 30.27 in - NE 6.9 mph - N/A   Unknown
5:52 PM 46.9 °F - 1.9 °F 16% 30.29 in - ENE 10.4 mph - N/A   Unknown
6:52 PM 44.1 °F 38.6 °F 3.0 °F 18% 30.29 in - NE 10.4 mph - N/A   Unknown
7:52 PM 41.0 °F 33.5 °F 3.9 °F 21% 30.29 in - ENE 13.8 mph - N/A   Unknown
8:52 PM 52.0 °F - -0.9 °F 11% 30.27 in - NE 19.6 mph 26.5 mph N/A   Unknown
9:52 PM 52.0 °F - -0.9 °F 11% 30.26 in - NE 23.0 mph 28.8 mph N/A   Unknown
10:52 PM 52.0 °F - -0.0 °F 12% 30.25 in - NE 18.4 mph 26.5 mph N/A   Unknown
11:52 PM 51.1 °F - 1.0 °F 13% 30.25 in - NE 13.8 mph 26.5 mph N/A   Unknown